Lid_Strength_Index
4 4 3 3 3 3 2 2 2 2 2 2 2 2 2 2 1 4 6 5 7 11 10 10 11 14 15 13 15 14 13 19 21 23 26 27 29 23 25 21 22 25 23 26 28 27 24 12 10 13 10 8 9 8
4 3 3 3 3 3 2 2 2 2 2 2 2 2 2 2 2 2 7 5 5 8 10 9 8 7 8 9 10 11 13 17 14 21 24 19 24 23 20 21 16 21 17 18 16 17 12 9 9 8 7 9 8 8
4 3 3 3 3 3 2 2 2 2 2 2 2 2 2 2 2 2 6 5 7 9 10 9 10 7 7 7 6 11 11 10 11 11 13 16 19 15 19 18 17 15 12 15 15 13 10 10 8 8 8 8 7 6
3 3 3 3 3 3 2 2 3 2 2 2 2 2 2 2 2 2 7 6 7 9 13 12 10 10 7 7 7 7 8 9 9 10 13 15 15 12 15 14 15 12 12 14 13 12 9 9 8 8 7 6 6 6
3 3 3 3 3 2 2 2 2 2 2 2 2 2 2 2 2 4 7 5 5 8 15 14 11 9 9 8 9 8 9 9 10 12 14 16 12 11 12 12 15 12 13 14 15 10 10 10 7 7 7 8 7 6
4 3 3 3 3 3 3 3 3 3 3 2 2 2 2 2 2 7 10 8 5 5 10 15 15 16 10 9 9 9 9 10 10 12 14 15 12 10 15 19 12 12 12 12 12 11 11 8 7 6 7 7 6 6
4 4 3 3 3 3 3 3 3 3 3 2 2 2 2 2 4 8 12 9 5 6 10 14 17 17 15 12 15 15 11 11 10 11 14 13 13 10 14 16 11 13 13 13 11 12 13 11 12 11 10 7 6 7
4 4 4 4 3 3 3 3 3 3 3 3 2 2 2 3 4 7 5 3 5 9 10 15 17 18 14 20 16 20 19 19 14 15 21 19 16 18 21 14 13 13 14 14 13 13 13 13 14 15 14 10 8 9
4 4 4 4 4 4 4 3 3 3 3 3 3 3 5 8 9 9 4 3 4 8 13 15 16 17 14 19 19 18 17 19 22 19 23 17 26 20 14 14 15 15 16 16 16 17 16 17 17 18 19 18 16 11
4 4 4 4 4 4 4 3 3 3 3 3 6 9 11 10 7 7 10 12 12 10 11 14 14 15 14 18 19 17 19 18 20 20 20 23 20 13 14 15 15 16 16 18 23 19 20 21 20 21 22 21 20 16
5 4 4 4 4 4 4 3 3 3 3 9 9 11 14 7 11 12 14 17 19 20 19 18 13 13 14 16 16 15 17 18 20 20 20 28 25 15 15 17 16 17 18 19 19 19 20 21 22 23 24 25 23 23
5 5 4 4 4 4 4 3 3 5 8 7 8 11 12 14 15 17 19 22 22 21 22 20 18 15 16 15 15 19 19 20 22 26 23 27 18 17 18 19 19 19 21 23 24 23 23 24 24 26 26 26 27 27
5 5 4 4 4 4 4 3 3 3 4 7 9 14 16 17 20 22 24 25 26 22 21 20 19 17 18 16 16 18 20 21 21 21 23 21 20 19 21 26 27 27 30 30 28 27 27 28 27 27 28 26 29 28
4 4 4 4 4 4 4 3 3 4 7 12 14 17 18 19 20 21 22 19 17 18 17 16 18 17 17 17 16 20 18 19 21 26 24 21 19 19 26 31 31 30 30 29 29 30 27 30 29 27 27 28 31 30
4 4 4 4 4 4 3 3 3 5 9 12 14 19 19 19 24 22 17 18 18 14 15 17 17 16 19 17 19 18 22 22 21 23 20 20 18 22 28 33 29 31 31 32 33 32 28 30 30 28 28 28 28 31
4 4 5 4 4 3 3 3 5 6 10 12 14 17 22 21 20 25 22 16 15 14 15 15 18 19 20 19 22 21 21 22 21 21 19 20 23 25 30 32 32 34 35 34 34 32 28 29 29 29 31 30 29 29
4 8 5 4 4 3 3 6 8 10 11 14 15 12 12 13 14 13 17 15 13 15 17 18 21 20 19 21 22 19 22 16 20 21 20 20 23 26 33 36 37 36 36 35 34 33 29 28 31 31 28 32 33 31
7 6 4 4 4 6 7 8 10 13 16 14 15 13 19 12 11 11 11 15 15 14 14 17 16 21 21 21 23 21 22 23 25 23 23 29 29 33 37 35 38 39 36 35 35 34 32 30 32 29 29 32 34 34
6 6 6 5 5 8 12 13 15 15 16 19 22 22 22 22 24 23 18 14 12 13 14 16 17 20 19 21 21 22 25 23 23 26 27 29 33 37 38 39 39 38 36 36 36 34 29 29 30 30 29 30 31 29
8 9 10 10 8 11 15 20 20 21 22 24 24 25 25 26 25 23 23 23 18 16 18 19 19 29 28 29 30 28 29 28 27 26 27 34 39 39 36 37 35 37 36 36 36 32 32 30 34 31 29 28 28 28
14 15 14 19 22 24 25 27 26 27 26 27 27 25 26 25 26 25 24 27 20 20 21 31 33 32 32 33 33 31 29 29 28 31 34 35 37 35 37 37 38 41 39 37 34 31 30 28 27 31 28 28 28 28
19 16 21 20 23 25 28 28 27 26 26 28 27 28 28 28 29 30 32 24 29 34 34 32 32 31 30 30 31 32 34 33 34 36 36 36 36 38 39 39 40 38 38 35 34 30 29 27 29 30 28 28 28 29
21 22 26 25 25 27 32 33 33 32 31 30 26 27 30 32 33 31 28 33 36 36 35 34 33 33 33 32 32 33 36 35 35 35 38 41 43 43 41 38 37 36 33 32 32 29 28 26 29 28 28 29 30 30
27 34 33 32 32 35 34 37 35 32 30 31 30 31 33 37 35 32 32 39 40 35 33 35 35 31 32 31 31 33 36 38 40 42 45 46 43 38 39 35 35 33 32 30 29 28 27 28 28 29 29 30 31 32
24 37 36 38 43 38 40 41 40 35 38 41 37 39 40 42 39 39 38 42 43 36 34 35 36 36 37 36 35 36 39 42 41 42 40 44 42 43 39 36 36 33 33 34 31 30 29 32 30 29 29 31 32 34
36 44 40 48 43 36 43 38 42 41 46 41 43 46 48 42 39 37 44 44 47 44 41 39 38 39 40 40 39 37 39 48 47 43 38 39 40 40 38 35 33 32 36 32 29 30 30 31 30 29 30 30 32 33
37 42 47 51 46 46 45 49 50 45 44 41 46 46 45 39 42 40 43 46 43 42 44 46 44 43 40 37 40 39 37 44 39 34 33 35 35 35 34 33 33 32 34 32 31 31 30 30 30 30 30 30 32 34
45 49 40 46 48 53 47 54 48 43 46 52 48 43 42 41 39 39 38 39 41 48 49 48 47 44 43 40 39 39 38 43 43 41 38 36 34 32 32 30 28 24 26 26 26 27 28 29 29 29 30 31 31 33
46 53 47 48 49 48 47 43 43 46 45 47 42 45 44 43 43 45 41 45 54 47 42 41 37 50 41 43 42 42 43 48 45 41 42 37 39 32 30 28 28 27 27 27 26 25 26 27 27 28 28 29 30 30
45 55 46 51 43 41 41 44 45 50 54 48 48 43 44 43 42 51 49 47 42 39 41 44 42 49 38 42 37 36 38 39 40 38 39 36 35 32 29 27 27 26 26 27 28 28 26 27 27 29 30 31 33 34
47 46 42 46 42 45 48 53 55 53 51 49 54 44 43 44 40 48 48 48 47 49 43 38 37 40 42 35 40 34 34 36 40 34 31 29 27 27 27 26 26 27 27 28 29 29 29 30 30 30 31 32 34 33
41 45 40 40 41 44 49 47 50 47 50 47 44 53 46 44 43 39 42 44 42 41 38 41 39 32 31 33 32 32 30 31 31 30 29 28 27 27 26 27 27 27 28 28 28 29 29 30 30 30 32 34 34 34
49 51 53 47 42 42 44 43 46 45 47 48 47 49 47 43 40 36 37 40 36 37 33 29 28 28 29 30 30 30 29 29 28 25 23 23 24 24 25 25 25 25 26 26 27 27 28 29 30 32 33 33 33 34